[[{"header":{"parameterUnit":"m.s-1","parameterCategory":1,"la1":30.2991,"la2":30.254,"lo1":-89.0895,"lo2":-89.0444,"dy":0.0017,"dx":0.0017,"nx":28,"ny":28,"refTime":"2024-08-09T15:00:00:Z","depth":0,"parameterNumber":2,"parameterNumberName":"U-component_of_WINDS"},"data":[0,0,0,0,0,0,0,0,0,0,0,0,0,0,0,0,0,0,0,0,0,0,0,0,0,0,0,0,0,0,0,0,0,0,0,0,0,0,0,0,0,0,0,0,0,0,0,0,0,0,0,0,0,0,0,0,0,0,1.9141,1.9143,0,1.934,1.9342,1.9344,1.9362,1.9359,1.9357,1.9355,1.9562,1.957,1.9577,0,0,0,0,0,0,0,0,0,0,0,0,0,1.8779,1.8785,1.9141,1.9143,1.9146,1.9339,1.9342,1.9345,1.9362,1.9359,1.9357,1.9354,1.956,1.9569,1.9578,0,0,0,0,0,0,0,0,0,0,0,0,0,1.8953,1.8787,1.914,1.9177,1.9183,1.9339,1.9342,1.9346,1.9363,1.9359,1.9356,1.9353,1.9557,1.9568,1.9579,1.9712,0,0,1.9613,1.9618,0,0,0,0,0,0,0,0,1.8943,1.8966,1.9169,1.9175,1.9181,1.9322,1.929,1.9469,1.9363,1.9294,1.9355,1.9352,1.9485,1.9502,1.9547,1.9722,1.9731,1.9614,1.9621,1.9626,1.9629,0,0,0,0,0,0,0,1.8931,1.8957,1.9219,1.9172,1.918,1.9185,1.9206,1.9324,1.9405,1.93,1.9302,1.9325,1.9488,1.9536,1.9552,1.9734,1.9614,1.9624,1.9631,1.9635,2.0029,2.0033,0,0,0,0,0,0,1.8911,1.8947,1.9213,1.9225,1.9052,1.9194,1.9218,1.9281,1.9404,1.942,1.9328,1.9325,1.9518,1.9538,1.9559,1.9723,1.9626,1.9636,1.9643,2.0025,2.003,2.0034,0,0,0,0,0,0,1.8903,1.8935,1.9205,1.9087,1.9122,1.9204,1.9274,1.9286,1.9334,1.9425,1.944,1.9361,1.9516,1.9543,1.9674,1.973,1.9641,1.9652,2.0021,2.0027,2.0032,2.0051,0,0,0,0,0,0,1.8893,1.8932,1.8982,1.9088,1.9128,1.9316,1.9278,1.9292,1.9353,1.9351,1.946,1.9475,1.9516,1.9657,1.9685,1.9744,1.966,2.0016,2.0024,2.003,2.0046,2.0057,2.0066,0,0,0,0,0,1.888,1.8981,1.8985,1.9017,1.9193,1.9319,1.9342,1.9385,1.9357,1.9409,1.9468,1.9472,1.972,1.967,1.9702,1.9765,2.0013,2.0022,2.003,2.0042,2.0055,2.0066,0,0,0,0,0,0,1.888,1.8995,1.9001,1.9139,1.9219,1.9321,1.9388,1.9398,1.9489,1.9484,1.9535,1.956,1.9688,1.9741,1.9683,1.9901,1.9864,1.9879,1.9862,1.9875,1.9885,1.9869,1.967,0,0,0,0,0,1.8896,1.8988,1.9084,1.9196,1.9236,1.9305,1.9362,1.9389,1.9474,1.9508,1.9576,1.966,1.9757,1.9819,1.9913,2.0055,2.0078,2.0114,2.0124,2.0132,2.0144,2.0222,2.0239,2.0061,2.0061,2.0061,0,0,1.893,1.9004,1.9059,1.9198,1.9263,1.9358,1.9334,1.9435,1.9505,1.9524,1.965,1.9704,1.9801,1.9937,2.0001,1.9984,2.0198,2.0143,2.0148,2.0156,2.0232,2.0249,2.0264,2.0067,2.0066,2.0065,0,0,1.904,1.9106,1.9206,1.9272,1.9371,1.9416,1.9441,1.9542,1.9578,1.9706,1.9722,1.9808,1.9973,2.0042,2.0098,2.0235,2.0242,2.0265,2.0317,2.0392,2.0406,2.0419,2.0467,2.0483,2.0277,2.0277,2.0277,0,1.907,1.9212,1.9257,1.9357,1.9418,1.9439,1.9541,1.9604,1.9728,1.977,1.975,1.9958,2.0025,2.0177,2.0211,2.0256,2.0286,2.0251,2.04,2.0414,2.0426,2.0472,2.049,2.0279,2.0279,2.0278,2.0278,0,1.9243,1.9342,1.9411,1.953,1.9599,1.97,1.9761,1.9826,1.9848,1.9896,2.0026,2.0107,2.0218,2.0257,2.0279,2.0413,2.0399,2.039,2.0353,2.0444,2.0488,2.0506,2.0282,2.0281,2.028,2.028,0,0,1.9356,1.95,1.9524,1.9579,1.969,1.9767,1.987,1.9978,2.0032,2.0118,2.0205,2.0346,2.0337,2.0401,2.0432,2.0499,2.0601,2.0481,2.0484,2.0499,2.0752,2.0757,2.0777,2.0607,2.0611,2.0613,2.0743,0,1.9477,1.9659,1.9703,1.9859,1.9951,1.9973,2.0062,2.0141,2.0189,2.0275,2.0329,2.0426,2.0409,2.0447,2.0515,2.0574,2.0652,2.0566,2.0688,2.0692,2.0661,2.08,2.0806,2.0924,2.0761,2.0764,2.0766,0,1.9642,1.9731,1.9895,1.9995,2.0035,2.0115,2.0217,2.0298,2.0388,2.0419,2.0491,2.0515,2.0624,2.0583,2.0733,2.0673,2.0727,2.0764,2.077,2.0781,2.0733,2.0814,2.0963,2.098,2.0794,2.0792,2.079,0,1.9706,1.9867,1.9987,2.0033,2.0152,2.0207,2.026,2.0347,2.0409,2.0499,2.054,2.0642,2.0697,2.0776,2.0828,2.0793,2.0974,2.0937,2.1002,2.1,2.1037,2.1033,2.1195,2.1075,2.1074,2.1074,2.1074,0,1.9835,1.9935,2.0017,2.009,2.0202,2.0253,2.0363,2.0417,2.0494,2.0579,2.0605,2.0684,2.0748,2.0836,2.0878,2.0995,2.1021,2.1049,2.1058,2.1045,2.1041,2.1079,2.1071,2.1079,2.1078,2.1077,2.1076,0,1.9924,1.9984,2.0115,2.0218,2.0246,2.0324,2.0412,2.0485,2.0534,2.0641,2.0669,2.0747,2.0852,2.0912,2.1044,2.1072,2.1203,2.121,2.1172,2.1175,2.1236,2.1228,2.1426,2.1454,2.1316,2.1318,2.1319,0,2.0002,2.0079,2.019,2.0248,2.0301,2.0395,2.0458,2.0512,2.0577,2.0686,2.0745,2.0851,2.0939,2.1106,2.1175,2.1277,2.1285,2.1347,2.13,2.1284,2.1284,2.1277,2.1285,2.1354,2.1355,2.1356,2.1357,0,2.0132,2.0158,2.0247,2.0348,2.0422,2.0504,2.0585,2.0632,2.07,2.0772,2.0879,2.0947,2.1082,2.1187,2.1295,2.135,2.1365,2.1372,2.1392,2.1378,2.1352,2.1365,2.1191,2.1366,2.1366,2.1365,2.1364,2.1364,2.0216,2.0286,2.0375,2.0474,2.0541,2.0616,2.0689,2.0748,2.0838,2.0951,2.0979,2.1091,2.1181,2.1326,2.1385,2.1474,2.1463,2.1492,2.1499,2.1505,2.1506,2.134,2.1494,2.1494,2.1494,2.1494,2.1494,0,2.0346,2.0405,2.0496,2.0609,2.0687,2.0695,2.0786,2.085,2.0949,2.1031,2.1117,2.124,2.1343,2.142,2.1525,2.1582,2.1592,2.1608,2.1603,2.1615,2.1511,2.1482,2.1598,2.1598,2.1598,2.1598,2.1598,2.1598,2.0423,2.054,2.0577,2.0728,2.0787,2.0896,2.0947,2.1017,2.1083,2.1219,2.1304,2.1354,2.1435,2.1546,2.1641,2.1661,2.1698,2.1712,2.1733,2.1634,2.1623,2.1612,2.1585,2.1721,2.1721,2.183,2.1831,2.1832]},{"header":{"parameterUnit":"m.s-1","parameterCategory":1,"la1":30.2991,"la2":30.254,"lo1":-89.0895,"lo2":-89.0444,"dy":0.0017,"dx":0.0017,"nx":28,"ny":28,"refTime":"2024-08-09T15:00:00:Z","depth":0,"parameterNumber":3,"parameterNumberName":"V-component_of_WINDS"},"data":[0,0,0,0,0,0,0,0,0,0,0,0,0,0,0,0,0,0,0,0,0,0,0,0,0,0,0,0,0,0,0,0,0,0,0,0,0,0,0,0,0,0,0,0,0,0,0,0,0,0,0,0,0,0,0,0,0,0,1.4258,1.426,0,1.4409,1.4411,1.4413,1.4401,1.4399,1.4396,1.4394,1.455,1.4556,1.4562,0,0,0,0,0,0,0,0,0,0,0,0,0,1.3957,1.3962,1.4258,1.426,1.4262,1.4409,1.4411,1.4413,1.4401,1.4398,1.4396,1.4393,1.4548,1.4555,1.4563,0,0,0,0,0,0,0,0,0,0,0,0,0,1.4096,1.3964,1.4258,1.4273,1.4276,1.4409,1.4411,1.4414,1.4402,1.4398,1.4395,1.4392,1.4546,1.4555,1.4564,1.4691,0,0,1.4593,1.4597,0,0,0,0,0,0,0,0,1.4088,1.4107,1.4269,1.4273,1.4276,1.4383,1.4362,1.4507,1.4403,1.4354,1.4394,1.439,1.4497,1.451,1.4546,1.4698,1.4705,1.4594,1.4599,1.4603,1.4606,0,0,0,0,0,0,0,1.4078,1.41,1.4318,1.4272,1.4276,1.4272,1.4288,1.439,1.4443,1.4358,1.4358,1.4376,1.4498,1.4537,1.455,1.4707,1.4593,1.4602,1.4608,1.4611,1.4966,1.497,0,0,0,0,0,0,1.4065,1.4092,1.4313,1.4322,1.4172,1.4281,1.4298,1.4352,1.4442,1.4452,1.4378,1.4375,1.4523,1.4539,1.4555,1.4708,1.4603,1.4612,1.4618,1.4963,1.4967,1.4971,0,0,0,0,0,0,1.4059,1.4085,1.4307,1.4207,1.4235,1.4289,1.435,1.4357,1.4396,1.4457,1.4467,1.4408,1.4521,1.4542,1.4656,1.4713,1.4616,1.4625,1.4958,1.4964,1.4969,1.5014,0,0,0,0,0,0,1.405,1.4083,1.4132,1.4208,1.4241,1.4406,1.4353,1.4362,1.4412,1.4408,1.4488,1.4498,1.452,1.4642,1.4666,1.4724,1.4632,1.4953,1.4961,1.4968,1.5008,1.5021,1.5032,0,0,0,0,0,1.4039,1.414,1.4135,1.4161,1.4304,1.441,1.4428,1.4451,1.4416,1.4466,1.4505,1.4495,1.4703,1.4654,1.468,1.4743,1.495,1.4959,1.4967,1.5003,1.5019,1.5032,0,0,0,0,0,0,1.407,1.415,1.4146,1.4274,1.4335,1.4407,1.4471,1.4467,1.454,1.4533,1.4559,1.4577,1.4691,1.4728,1.4673,1.4868,1.4822,1.4836,1.484,1.4855,1.4867,1.4856,1.464,0,0,0,0,0,1.4091,1.4171,1.4237,1.4343,1.4374,1.4417,1.4464,1.4476,1.454,1.4566,1.4614,1.4677,1.4756,1.4807,1.4884,1.5013,1.5029,1.5068,1.508,1.5089,1.5102,1.517,1.5187,1.4999,1.4999,1.4999,0,0,1.4137,1.4191,1.424,1.4351,1.44,1.448,1.4439,1.4527,1.4587,1.458,1.469,1.4727,1.4798,1.492,1.4976,1.4954,1.5157,1.51,1.5107,1.5115,1.518,1.5198,1.5214,1.5005,1.5004,1.5003,0,0,1.4262,1.4311,1.4404,1.4453,1.4526,1.4553,1.4575,1.4648,1.4672,1.4783,1.4778,1.4849,1.4985,1.5036,1.5079,1.5218,1.5211,1.5242,1.5304,1.5371,1.5385,1.5399,1.5447,1.5464,1.5254,1.5254,1.5254,0,1.431,1.4432,1.4452,1.454,1.4588,1.4584,1.4677,1.4724,1.4819,1.4851,1.4826,1.4994,1.5042,1.5174,1.5207,1.5243,1.5268,1.5234,1.5381,1.5395,1.5408,1.5454,1.5472,1.5257,1.5257,1.5256,1.5256,0,1.4485,1.457,1.4636,1.4726,1.4782,1.4872,1.4905,1.4959,1.4965,1.4994,1.5105,1.5162,1.5248,1.528,1.5288,1.5412,1.5396,1.5376,1.533,1.5428,1.5472,1.549,1.5262,1.526,1.5259,1.5259,0,0,1.4637,1.4734,1.4758,1.4798,1.4877,1.4942,1.5031,1.5114,1.5159,1.5223,1.5297,1.5411,1.5391,1.544,1.5453,1.5511,1.5614,1.5483,1.5485,1.5504,1.5753,1.5767,1.5788,1.561,1.5613,1.5616,1.5746,0,1.4768,1.4926,1.4945,1.5085,1.5162,1.5156,1.5233,1.5289,1.5318,1.5387,1.5419,1.5498,1.5467,1.5496,1.5553,1.559,1.5665,1.5581,1.5678,1.5681,1.5661,1.5811,1.5828,1.5948,1.5763,1.5766,1.5768,0,1.4944,1.5012,1.5159,1.5224,1.5257,1.5326,1.5402,1.5468,1.553,1.5547,1.56,1.5604,1.5694,1.5643,1.5767,1.5709,1.575,1.5773,1.5778,1.5789,1.5731,1.5824,1.5987,1.6005,1.5796,1.5794,1.5792,0,1.5038,1.5166,1.527,1.5304,1.5383,1.5431,1.5466,1.5525,1.5572,1.5639,1.5669,1.5746,1.5787,1.5845,1.5869,1.583,1.599,1.5942,1.6006,1.6005,1.6041,1.6039,1.6212,1.6067,1.6067,1.6067,1.6066,0,1.5183,1.5273,1.5312,1.5376,1.5476,1.5496,1.5594,1.5627,1.5678,1.5747,1.5747,1.5812,1.584,1.5908,1.5927,1.6025,1.6044,1.6059,1.6063,1.606,1.6058,1.6087,1.6079,1.6071,1.607,1.6069,1.6069,0,1.5306,1.5336,1.5448,1.5513,1.5531,1.5601,1.5656,1.5717,1.5743,1.583,1.5852,1.5894,1.5974,1.6003,1.6102,1.6114,1.6227,1.6224,1.6206,1.6207,1.6269,1.6262,1.6467,1.6494,1.6332,1.6333,1.6335,0,1.5397,1.5466,1.5536,1.5582,1.5618,1.5693,1.5741,1.5762,1.5812,1.5885,1.5937,1.6016,1.6081,1.6209,1.6248,1.6322,1.6321,1.6387,1.6332,1.6325,1.6321,1.6316,1.6322,1.6398,1.64,1.6401,1.6402,0,1.5555,1.5565,1.5634,1.5708,1.5764,1.5824,1.5881,1.5918,1.5948,1.6003,1.6085,1.6135,1.6233,1.6311,1.6386,1.6421,1.6417,1.6419,1.6437,1.6435,1.6421,1.6428,1.6234,1.6415,1.6413,1.6413,1.6412,1.6411,1.5664,1.5724,1.5782,1.5858,1.5902,1.5955,1.6014,1.6047,1.6115,1.6197,1.6205,1.6292,1.6349,1.6449,1.6487,1.6554,1.6536,1.6564,1.657,1.6577,1.6581,1.6409,1.6568,1.6568,1.6568,1.6567,1.6567,0,1.5821,1.5857,1.5927,1.6006,1.6065,1.6053,1.6115,1.6165,1.6242,1.6295,1.6358,1.645,1.6524,1.6568,1.6642,1.6688,1.6687,1.6706,1.6703,1.6711,1.6593,1.6569,1.6705,1.6705,1.6705,1.6705,1.6705,1.6705,1.591,1.6009,1.6026,1.6147,1.6182,1.6267,1.6303,1.635,1.6393,1.6495,1.6557,1.6584,1.6632,1.671,1.6777,1.6787,1.6815,1.6836,1.6844,1.6734,1.672,1.6706,1.6684,1.6842,1.6842,1.6956,1.6958,1.6958]}]]